Location: Clyde
(45.1830°S, 169.3170°E)
Time: 22:44:19
(UTC+12:00)

ISS - Visible Passes

Search period start: 14 May 2021 00:00
Search period end: 24 May 2021 00:00
Orbit: 417 x 422 km, 51.6° (Epoch: 14 May)

Date Brightness Start Highest point End Pass type
(mag) Time Alt. Az. Time Alt. Az. Time Alt. Az.
20 May -0.9 07:15:32 10° N 07:18:17 22° NE 07:21:02 10° E visible
21 May -0.6 06:29:06 10° NNE 06:31:00 14° NE 06:32:54 10° E visible
22 May -3.0 07:16:33 10° NW 07:19:55 56° NE 07:23:19 10° ESE visible
23 May -2.1 06:29:22 10° NNW 06:32:32 35° NE 06:35:43 10° ESE visible
